Date String (YYYY-MM-DD hh:mm:ss) UTC,Instrument flags,absolute air pressure of the measurement (hPa),sample flow rate (lpm),inlet stack bypass flow (lpm),air temperature of the measurement (°C),ambient temperature measured by the external sensor (°C),aerosol sample conditioner tube jacket temperature (°C),OPC LED temperature (°C),internal box temperature (°C),relative humidity of the measurement (%),span deviation,mass concentration of particles derived from Lorenz-Mie calculation of OPC scattering (μg/m³),mass concentration of particles derived from Lorenz-Mie calculation of OPC scattering (μg/m³),mass concentration of particles derived from Lorenz-Mie calculation of OPC scattering (μg/m³)
DateTimeUTC,F1_M11,P_M11,Q1_M11,Q2_M11,T1_M11,T2_M11,T3_M11,T4_M11,T5_M11,U1_M11,ZSPAN_M11,X0_M11,X2_M11,X1_M11
2024-01-02 09:00:00,SystemResetWarning,0833.2,5.00,000.00,023.7,022.4,000.0,032.1,025.0,11.9,0000.0,0007.93,0004.47,0004.09
2024-01-02 09:01:00,SystemResetWarning,0833.3,5.00,000.00,023.7,022.3,000.0,032.1,025.0,11.9,0000.0,0007.53,0004.40,0004.05
2024-01-02 09:02:00,SystemResetWarning,0833.3,5.00,000.00,023.7,022.3,000.0,032.1,024.9,11.8,0000.0,0006.84,0004.32,0004.01
2024-01-02 09:03:00,SystemResetWarning,0833.3,5.00,000.00,023.6,022.3,000.0,032.1,024.9,11.9,0000.0,0006.96,0004.34,0003.99
2024-01-02 09:04:00,SystemResetWarning,0833.2,5.00,000.00,023.6,022.3,000.0,032.1,024.9,11.9,0000.0,0006.93,0004.31,0003.96
2024-01-02 09:05:00,SystemResetWarning,0833.2,5.00,000.00,023.6,022.3,000.0,032.0,024.9,11.9,0000.0,0006.79,0004.26,0003.92
2024-01-02 09:06:00,SystemResetWarning,0833.3,4.99,000.00,023.6,022.3,000.0,032.0,024.9,11.9,0000.0,0006.61,0004.23,0003.89
2024-01-02 09:07:00,SystemResetWarning,0833.3,5.00,000.00,023.6,022.3,000.0,032.0,024.9,11.9,0000.0,0007.19,0004.19,0003.86
2024-01-02 09:08:00,SystemResetWarning,0833.3,5.00,000.00,023.6,022.2,000.0,032.0,024.9,11.9,0000.0,0007.45,0004.16,0003.83
2024-01-02 09:09:00,SystemResetWarning,0833.3,5.01,000.00,023.5,022.2,000.0,032.0,024.9,11.9,0000.0,0007.37,0004.11,0003.80
2024-01-02 09:10:00,SystemResetWarning,0833.3,5.01,000.00,023.5,022.2,000.0,032.0,024.8,11.9,0000.0,0007.19,0004.05,0003.77
2024-01-02 09:11:00,SystemResetWarning,0833.3,5.00,000.00,023.5,022.2,000.0,032.0,024.8,11.9,0000.0,0007.24,0004.01,0003.73
2024-01-02 09:12:00,SystemResetWarning,0833.3,5.00,000.00,023.5,022.2,000.0,031.9,024.8,11.9,0000.0,0007.29,0004.01,0003.72
2024-01-02 09:13:00,SystemResetWarning,0833.3,5.01,000.00,023.5,022.1,000.0,031.9,024.8,11.9,0000.0,0007.31,0004.01,0003.72
2024-01-02 09:14:00,SystemResetWarning,0833.3,5.00,000.00,023.5,022.1,000.0,031.9,024.8,11.9,0000.0,0007.34,0003.98,0003.73
2024-01-02 09:15:00,SystemResetWarning,0833.3,5.00,000.00,023.5,022.1,000.0,031.9,024.8,11.9,0000.0,0007.36,0003.98,0003.74
2024-01-02 09:16:00,SystemResetWarning,0833.3,4.99,000.00,023.4,022.1,000.0,031.9,024.8,11.9,0000.0,0007.44,0004.00,0003.74
2024-01-02 09:17:00,SystemResetWarning,0833.4,5.00,000.00,023.4,022.1,000.0,031.9,024.8,11.9,0000.0,0007.53,0004.02,0003.75
2024-01-02 09:18:00,SystemResetWarning,0833.4,5.00,000.00,023.4,022.1,000.0,031.9,024.8,12.0,0000.0,0007.04,0004.01,0003.75
2024-01-02 09:19:00,SystemResetWarning,0833.4,5.00,000.00,023.4,022.1,000.0,031.8,024.8,12.0,0000.0,0006.71,0004.03,0003.75
2024-01-02 09:20:00,SystemResetWarning,0833.4,5.00,000.00,023.4,022.1,000.0,031.8,024.8,12.0,0000.0,0006.60,0004.03,0003.74
2024-01-02 09:21:00,SystemResetWarning,0833.5,4.99,000.00,023.4,022.0,000.0,031.8,024.7,12.0,0000.0,0006.80,0004.03,0003.73
2024-01-02 09:22:00,SystemResetWarning,0833.4,4.99,000.00,023.4,022.0,000.0,031.8,024.7,12.0,0000.0,0006.64,0004.02,0003.73
2024-01-02 09:23:00,SystemResetWarning,0833.4,4.99,000.00,023.4,022.0,000.0,031.8,024.7,12.0,0000.0,0006.41,0004.00,0003.72
2024-01-02 09:24:00,SystemResetWarning,0833.4,5.00,000.00,023.3,022.0,000.0,031.8,024.7,12.0,0000.0,0006.40,0004.00,0003.72
2024-01-02 09:25:00,SystemResetWarning,0833.4,5.01,000.00,023.3,022.0,000.0,031.8,024.7,12.0,0000.0,0006.31,0004.01,0003.72
2024-01-02 09:26:00,SystemResetWarning,0833.4,5.01,000.00,023.3,022.0,000.0,031.7,024.7,12.0,0000.0,0006.65,0004.00,0003.70
2024-01-02 09:27:00,SystemResetWarning,0833.4,5.01,000.00,023.3,022.0,000.0,031.7,024.7,12.0,0000.0,0007.82,0003.96,0003.69
2024-01-02 09:28:00,SystemResetWarning,0833.4,5.00,000.00,023.3,022.0,000.0,031.7,024.7,12.1,0000.0,0007.94,0003.95,0003.69
2024-01-02 09:29:00,SystemResetWarning,0833.4,5.00,000.00,023.3,022.0,000.0,031.7,024.7,12.1,0000.0,0008.02,0003.94,0003.67
2024-01-02 09:30:00,SystemResetWarning,0833.4,5.00,000.00,023.3,022.0,000.0,031.7,024.6,12.0,0000.0,0008.42,0003.95,0003.67
2024-01-02 09:31:00,SystemResetWarning,0833.4,5.00,000.00,023.3,022.0,000.0,031.7,024.6,12.1,0000.0,0008.44,0003.96,0003.68
2024-01-02 09:32:00,SystemResetWarning,0833.4,5.00,000.00,023.3,021.9,000.0,031.7,024.6,12.0,0000.0,0008.39,0003.96,0003.69
2024-01-02 09:33:00,SystemResetWarning,0833.5,5.01,000.00,023.2,021.9,000.0,031.7,024.6,12.0,0000.0,0008.39,0003.96,0003.67
2024-01-02 09:34:00,SystemResetWarning,0833.4,5.00,000.00,023.2,021.9,000.0,031.7,024.6,12.0,0000.0,0008.44,0003.96,0003.67
2024-01-02 09:35:00,SystemResetWarning,0833.4,5.00,000.00,023.2,021.9,000.0,031.6,024.6,12.0,0000.0,0008.89,0003.96,0003.66
2024-01-02 09:36:00,SystemResetWarning,0833.4,5.00,000.00,023.2,021.9,000.0,031.6,024.6,12.0,0000.0,0008.86,0003.93,0003.64
2024-01-02 09:37:00,SystemResetWarning,0833.5,5.00,000.00,023.2,021.9,000.0,031.6,024.6,12.0,0000.0,0008.98,0003.93,0003.64
2024-01-02 09:38:00,SystemResetWarning,0833.5,5.00,000.00,023.2,022.0,000.0,031.6,024.6,12.0,0000.0,0008.17,0003.94,0003.65
2024-01-02 09:39:00,SystemResetWarning,0833.5,5.00,000.00,023.2,022.0,000.0,031.6,024.6,12.0,0000.0,0007.81,0003.97,0003.64
2024-01-02 09:40:00,SystemResetWarning,0833.5,5.00,000.00,023.2,022.0,000.0,031.6,024.6,12.0,0000.0,0007.84,0003.98,0003.65
2024-01-02 09:41:00,SystemResetWarning,0833.5,5.00,000.00,023.2,022.0,000.0,031.6,024.6,12.0,0000.0,0007.48,0003.96,0003.64
2024-01-02 09:42:00,SystemResetWarning,0833.6,5.00,000.00,023.2,021.9,000.0,031.6,024.6,12.0,0000.0,0007.41,0003.97,0003.63
2024-01-02 09:43:00,SystemResetWarning,0833.6,5.00,000.00,023.2,022.0,000.0,031.6,024.6,12.0,0000.0,0007.34,0003.94,0003.62
2024-01-02 09:44:00,SystemResetWarning,0833.5,5.00,000.00,023.2,022.0,000.0,031.6,024.6,12.0,0000.0,0007.76,0003.94,0003.61
2024-01-02 09:45:00,SystemResetWarning,0833.5,5.00,000.00,023.2,022.0,000.0,031.6,024.6,12.0,0000.0,0008.02,0003.93,0003.59
2024-01-02 09:46:00,SystemResetWarning,0833.5,5.00,000.00,023.2,022.0,000.0,031.5,024.6,12.0,0000.0,0007.91,0003.92,0003.58
2024-01-02 09:47:00,SystemResetWarning,0833.5,5.00,000.00,023.2,022.0,000.0,031.5,024.6,12.0,0000.0,0007.98,0003.93,0003.59
2024-01-02 09:48:00,SystemResetWarning,0833.5,5.00,000.00,023.1,022.0,000.0,031.5,024.6,12.0,0000.0,0007.89,0003.96,0003.57
2024-01-02 09:49:00,SystemResetWarning,0833.5,5.01,000.00,023.1,022.0,000.0,031.5,024.6,12.0,0000.0,0007.93,0003.97,0003.56
2024-01-02 09:50:00,SystemResetWarning,0833.4,5.00,000.00,023.1,022.1,000.0,031.5,024.6,12.0,0000.0,0007.79,0003.93,0003.56
2024-01-02 09:51:00,SystemResetWarning,0833.5,5.00,000.00,023.1,022.1,000.0,031.5,024.6,12.0,0000.0,0007.78,0003.90,0003.54
2024-01-02 09:52:00,SystemResetWarning,0833.5,5.01,000.00,023.1,022.1,000.0,031.5,024.6,12.0,0000.0,0007.66,0003.87,0003.52
2024-01-02 09:53:00,SystemResetWarning,0833.4,5.00,000.00,023.1,022.1,000.0,031.5,024.5,12.0,0000.0,0007.60,0003.82,0003.50
2024-01-02 09:54:00,SystemResetWarning,0833.4,5.00,000.00,023.1,022.1,000.0,031.5,024.6,12.0,0000.0,0007.85,0003.83,0003.50
2024-01-02 09:55:00,SystemResetWarning,0833.5,5.00,000.00,023.1,022.1,000.0,031.5,024.5,12.1,0000.0,0007.49,0003.83,0003.50
2024-01-02 09:56:00,SystemResetWarning,0833.4,5.00,000.00,023.1,022.1,000.0,031.5,024.5,12.1,0000.0,0007.23,0003.82,0003.50
2024-01-02 09:57:00,SystemResetWarning,0833.4,4.99,000.00,023.1,022.2,000.0,031.5,024.5,12.1,0000.0,0007.12,0003.81,0003.49
2024-01-02 09:58:00,SystemResetWarning,0833.4,5.00,000.00,023.1,022.2,000.0,031.5,024.5,12.1,0000.0,0007.49,0003.81,0003.50
2024-01-02 09:59:00,SystemResetWarning,0833.4,5.00,000.00,023.1,022.2,000.0,031.5,024.5,12.1,0000.0,0007.54,0003.80,0003.50
